Location: Dulzura
(32.6442°N, 116.7814°W)
Time: 07:44:53
(UTC+00:00)

Hubble Space Telescope - Visible Passes

Search period start: 04 December 2022 00:00
Search period end: 14 December 2022 00:00
Orbit: 530 x 534 km, 28.5° (Epoch: 03 December)

Date Brightness Start Highest point End Pass type
(mag) Time Alt. Az. Time Alt. Az. Time Alt. Az.
04 Dec 3.4 13:50:07 10° SSW 13:52:44 17° SSE 13:55:22 10° ESE visible
05 Dec 3.2 13:37:02 10° SSW 13:40:01 20° SSE 13:43:00 10° ESE visible
06 Dec 2.9 13:24:03 10° SW 13:27:18 23° SSE 13:30:33 10° ESE visible
07 Dec 2.6 13:11:22 11° SW 13:14:36 26° SSE 13:18:03 10° ESE visible
08 Dec 2.3 12:59:53 20° SSW 13:01:53 30° SSE 13:05:30 10° ESE visible
09 Dec 2.0 12:48:17 30° SSW 12:49:11 34° SSE 12:52:54 10° ESE visible
10 Dec 1.8 12:36:34 37° SSE 12:36:34 37° SSE 12:40:17 10° ESE visible
11 Dec 2.2 12:24:47 34° SE 12:24:47 34° SE 12:27:39 10° ESE visible
11 Dec 1.6 14:00:42 10° WSW 14:04:36 44° S 14:08:29 10° ESE visible
12 Dec 2.8 12:12:56 26° ESE 12:12:56 26° ESE 12:15:00 10° ESE visible
12 Dec 1.7 13:48:09 11° WSW 13:51:54 41° S 13:55:46 10° ESE visible
13 Dec 3.4 12:01:03 19° ESE 12:01:03 19° ESE 12:02:19 10° ESE visible
13 Dec 1.7 13:36:16 15° WSW 13:39:11 38° S 13:43:00 10° ESE visible
